EW4389 Weather Reports


time (UTC)temp
C
wind
direction
speed
KPH
gust
KPH
rain 1hr
cm
rain 24hr
cm
rain mn
cm
humidity
%
barometer
mb
20260906213056 18 61 4.8 14.5 0.00 0.00 0.00 68 1014.8
20260906211555 18 63 1.6 19.3 0.00 0.00 0.00 68 1014.9
20260906210104 19 67 8.0 20.9 0.00 0.00 0.00 67 1014.8
20260906204559 20 29 4.8 19.3 0.00 0.00 0.00 68 1014.6
20260906203053 20 25 4.8 14.5 0.00 0.00 0.00 68 1014.5
20260906201602 20 60 4.8 12.9 0.00 0.00 0.00 67 1014.5
20260906200058 20 10 8.0 16.1 0.00 0.00 0.00 68 1014.5
20260906194551 20 43 4.8 19.3 0.00 0.00 0.00 67 1014.5
20260906193050 20 9 4.8 19.3 0.00 0.00 0.00 67 1014.5
20260906191550 20 48 3.2 14.5 0.00 0.00 0.00 67 1014.4
20260906190127 20 356 6.4 14.5 0.00 0.00 0.00 67 1014.3
20260906184549 20 115 1.6 11.3 0.00 0.00 0.00 67 1014.3
20260906183056 20 13 4.8 16.1 0.00 0.00 0.00 67 1014.3
20260906181546 20 101 3.2 14.5 0.00 0.00 0.00 67 1014.5
20260906180044 20 86 3.2 16.1 0.00 0.00 0.00 66 1014.5
20260906174544 20 79 4.8 16.1 0.00 0.00 0.00 66 1014.5
20260906173048 20 46 4.8 22.5 0.00 0.00 0.00 66 1014.6
20260906171544 20 63 3.2 12.9 0.00 0.00 0.00 65 1014.6
20260906170040 20 45 8.0 14.5 0.00 0.00 0.00 64 1014.6
20260906164539 20 44 4.8 14.5 0.00 0.00 0.00 62 1014.6
20260906163038 20 48 4.8 16.1 0.00 0.00 0.00 62 1014.6
20260906161537 19 23 1.6 9.7 0.00 0.00 0.00 60 1014.6
20260906160035 19 17 3.2 16.1 0.00 0.00 0.00 60 1014.6
20260906154535 19 53 6.4 14.5 0.00 0.00 0.00 59 1014.5
20260906153030 19 25 4.8 19.3 0.00 0.00 0.00 53 1014.6
20260906151532 19 34 6.4 16.1 0.00 0.00 0.00 44 1014.5
20260906150032 19 46 3.2 16.1 0.00 0.00 0.00 43 1014.6
20260906144523 19 41 6.4 12.9 0.00 0.00 0.00 35 1014.4
20260906143019 18 50 1.6 14.5 0.00 0.00 0.00 34 1014.3
20260906141516 18 73 3.2 16.1 0.00 0.00 0.00 34 1014.3
20260906140035 18 108 3.2 11.3 0.00 0.00 0.00 34 1014.3
20260906134510 17 139 3.2 14.5 0.00 0.00 0.00 35 1014.2
20260906133010 17 65 3.2 14.5 0.00 0.00 0.00 35 1014.1
20260906131507 17 57 3.2 20.9 0.00 0.00 0.00 35 1014.1
20260906130010 17 53 3.2 16.1 0.00 0.00 0.00 35 1014.1
20260906124504 16 59 1.6 12.9 0.00 0.00 0.00 35 1013.8
20260906123008 17 42 1.6 12.9 0.00 0.00 0.00 35 1013.7
20260906121502 16 16 1.6 12.9 0.00 0.00 0.00 35 1013.7
20260906120059 16 44 0.0 8.0 0.00 0.00 0.00 35 1013.5
20260906114559 16 39 3.2 9.7 0.00 0.00 0.00 35 1013.3
20260906113102 16 33 3.2 14.5 0.00 0.00 0.00 35 1013.3
20260906111557 16 46 0.0 8.0 0.00 0.00 0.00 36 1013.0
20260906110059 16 40 1.6 9.7 0.00 0.00 0.00 36 1012.9
20260906104552 16 36 0.0 6.4 0.00 0.00 0.00 36 1012.9
20260906103051 15 36 3.2 8.0 0.00 0.00 0.00 36 1012.8
20260906101550 15 35 1.6 8.0 0.00 0.00 0.00 36 1012.7
20260906100050 15 36 3.2 6.4 0.00 0.00 0.00 36 1012.6
20260906094604 16 36 1.6 6.4 0.00 0.00 0.00 36 1012.6
20260906093058 16 36 1.6 9.7 0.00 0.00 0.00 36 1012.4
20260906091545 16 37 1.6 6.4 0.00 0.00 0.00 36 1012.2
20260906090109 16 40 0.0 3.2 0.00 0.00 0.00 36 1012.1
20260906084551 16 40 0.0 4.8 0.00 0.00 0.00 36 1011.9
20260906083043 16 40 0.0 3.2 0.00 0.00 0.00 36 1011.6
20260906081540 16 40 0.0 4.8 0.00 0.00 0.00 36 1011.6
20260906080041 16 40 0.0 3.2 0.00 0.00 0.00 36 1011.6
20260906074549 16 40 0.0 1.6 0.00 0.00 0.00 36 1011.5
20260906073038 16 40 0.0 4.8 0.00 0.00 0.00 37 1011.7
20260906071538 16 40 0.0 3.2 0.00 0.00 0.00 37 1011.6
20260906070039 16 40 0.0 1.6 0.00 0.00 0.00 36 1011.5
20260906064537 16 40 0.0 1.6 0.00 0.00 0.00 36 1011.6
20260906063036 16 40 0.0 4.8 0.00 0.00 0.00 36 1011.7
20260906061546 16 40 1.6 6.4 0.00 0.00 0.00 36 1011.8
20260906060034 16 40 1.6 4.8 0.00 0.00 0.00 36 1011.8
20260906054537 16 41 1.6 6.4 0.00 0.00 0.00 36 1011.8
20260906053033 16 41 3.2 6.4 0.00 0.00 0.00 36 1011.8
20260906051533 16 42 0.0 3.2 0.00 0.00 0.00 38 1011.8
20260906050026 15 41 0.0 4.8 0.00 0.00 0.00 39 1011.9
20260906044526 15 41 0.0 3.2 0.00 0.00 0.00 40 1011.8
20260906043023 15 41 0.0 0.0 0.00 0.00 0.00 39 1011.7
20260906041533 15 41 0.0 0.0 0.00 0.00 0.00 40 1011.7
20260906040022 15 41 0.0 0.0 0.00 0.00 0.00 41 1011.4
20260906034519 15 41 0.0 0.0 0.00 0.00 0.00 41 1011.5
20260906033017 15 41 0.0 0.0 0.00 0.00 0.00 41 1011.3
20260906031520 15 41 0.0 0.0 0.00 0.00 0.00 42 1011.3
20260906030015 15 41 0.0 0.0 0.00 0.00 0.00 44 1011.3
20260906024516 15 41 0.0 0.0 0.00 0.00 0.00 44 1011.3
20260906023015 15 41 0.0 0.0 0.00 0.00 0.00 45 1011.1
20260906021513 15 41 0.0 0.0 0.00 0.00 0.00 46 1011.1
20260906020013 16 41 0.0 0.0 0.00 0.00 0.00 47 1011.0
20260906014525 16 41 0.0 1.6 0.00 0.00 0.00 49 1010.9
20260906013012 16 41 0.0 1.6 0.00 0.00 0.00 50 1010.9
20260906011510 16 42 0.0 1.6 0.00 0.00 0.00 52 1010.8
20260906010032 16 42 0.0 3.2 0.00 0.00 0.00 53 1010.8
20260906004509 17 41 0.0 3.2 0.00 0.00 0.00 55 1010.7
20260906003007 17 41 0.0 3.2 0.00 0.00 0.00 57 1010.6
20260906001506 17 41 0.0 3.2 0.00 0.00 0.00 61 1010.6
20260906000006 18 41 1.6 9.7 0.00 0.00 0.00 64 1010.5
20260905234506 18 50 1.6 8.0 0.00 0.00 0.00 66 1010.5
20260905233005 19 50 1.6 6.4 0.00 0.00 0.00 68 1010.5
20260905231505 20 50 1.6 8.0 0.00 0.00 0.00 69 1010.5
20260905230005 20 45 0.0 6.4 0.00 0.00 0.00 69 1010.4
20260905224504 20 44 1.6 8.0 0.00 0.00 0.00 69 1010.4
20260905223013 20 43 3.2 16.1 0.00 0.00 0.00 68 1010.4
20260905221502 20 23 3.2 9.7 0.00 0.00 0.00 68 1010.3
20260905220002 21 5 4.8 14.5 0.00 0.00 0.00 68 1010.2
20260905214502 21 23 4.8 12.9 0.00 0.00 0.00 68 1009.9